Location: Canyam�s
(41.5996°N, 2.4450°E)
Time: 09:11:31
(UTC+00:00)

Cosmos 1437 Rocket - Pass Details

Date: 06 June 2020
Orbit: 507 x 561 km, 81.2° (Epoch: 11 July)

Event Time Altitude Azimuth Distance (km) Brightness Sun altitude
Rises 20:16:48 0° 199° (SSW) 2,601 6.0 -9.1°
Reaches altitude 10° 20:18:56 10° 204° (SSW) 1,724 5.2 -9.4°
Maximum altitude 20:22:38 53° 282° (WNW) 636 3.5 -9.9°
Drops below altitude 10° 20:26:25 10° 0° (N) 1,759 6.0 -10.4°
Sets 20:28:38 0° 5° (N) 2,661 6.9 -10.7°
